BEIDOU-3 M11 (43602 NORAD) Tracking and Keplerian Element Data

This shows tracking and keplerian element data for the satellite.

Feedback or suggestion? Click here.




ElementValue
Catalog43602
NameBEIDOU-3 M11
Epoch Orbit43
Epoch Day260.66333311
Epoch Year2018
RAAN277.5859
Inclination54.9919
Eccentricity0.0116479
Argument of Perigee177.7126
Mean Anonmoly182.6638
Mean Motion1.82874438
Decay Rate1.9E-07
L11 43602U 18067A 18260.66333311 .00000019 00000-0 00000+0 0 9999
L22 43602 54.9919 277.5859 0116479 177.7126 182.6638 1.82874438 432

Live tracking and technical data element details for BEIDOU-3 M11 (NORAD 43602). BEIDOU-3 M11 can be tracked NOW for your location showing map with azimuth and elevation plus other details from your city location.

Track the satellite on the map from your city or location and see movement details for azimuth, elevation, latitude, longitude, range, height, and movement on the map or in text.







IsCatalogInMostPopularTable: catalog: 43602, numindb: 40
Update: records affected: 1



GetName: 43602 BEIDOU-3 M11

Hit Count: updated at: Thu, 15 Nov 2018 04:17:01 GMT